Regional Weather Roundup
Issued by NWS

Home | Current Version | Previous Version | Text Only | Print | Product List | Glossary Off
Versions: 1 2 3 4 5 6 7 8 9 10 11 12 13 14 15 16 17 18 19 20 21 22 23 24 25 26 27 28 29 30 31 32 33 34 35 36 37 38 39 40 41 42 43 44 45 46 47 48 49 50

461
ASUS45 KCYS 252310
RWRWY

WYOMING REGIONAL WEATHER ROUNDUP
NATIONAL WEATHER SERVICE CHEYENNE WY
500 PM MDT TUE APR 25 2017

NOTE:  "FAIR" INDICATES FEW OR NO CLOUDS BELOW 12,000 FEET
WITH NO SIGNIFICANT WEATHER AND/OR OBSTRUCTIONS TO VISIBILITY.

WYZ001-260000-
YELLOWSTONE NATIONAL PARK

CITY           SKY/WX    TMP DP  RH WIND       PRES   REMARKS
LK YELLOWSTONE   N/A     32  30  92 W5        29.83R WCI  27
W YELLOWSTONE  NOT AVBL

$$
WYZ002>013-054>058-071-098>099-260000-
NORTHERN WYOMING

CITY           SKY/WX    TMP DP  RH WIND       PRES   REMARKS
JACKSON        PTSUNNY   43  34  70 N15       29.79R
CODY           FAIR      41  31  67 N8        29.81S
GREYBULL       FAIR      47  30  51 N21       29.76S
WORLAND        FAIR      49  36  61 NW16G24   29.76S
SHERIDAN       CLOUDY    36  30  79 NW7       29.85F WCI  30
BUFFALO        NOT AVBL
GILLETTE       SNOW      28  28 100 N13       29.83R WCI  17
HULETT         LGT SNOW  28  27  93 NE9       29.84S WCI  20
NEWCASTLE      LGT SNOW  32  30  93 N16       29.76R WCI  21

$$
WYZ014>020-022>026-101>103-260000-
CENTRAL WYOMING

CITY           SKY/WX    TMP DP  RH WIND       PRES   REMARKS
BIG PINEY      PTSUNNY   47  29  49 N17G24    29.77S
PINEDALE       CLOUDY    43  30  61 E8G21     29.77S
DUBOIS         CLOUDY    41  21  45 SE12      29.75R
LANDER         CLOUDY    41  34  76 W10       29.79S
RIVERTON       FAIR      42  30  62 N14G22    29.79R
CASPER         CLOUDY    31  26  82 N13       29.82R WCI  21
DOUGLAS        LGT SNOW  31  26  82 N16       29.80R VSB 3/4 WCI  20

$$
WYZ021-027>030-104>119-260000-
SOUTHERN WYOMING

CITY           SKY/WX    TMP DP  RH WIND       PRES   REMARKS
EVANSTON       CLOUDY    41  27  57 NW14      29.84R
KEMMERER         N/A     41  30  65 W22G29    29.80R
FORT BRIDGER   MOCLDY    46  29  53 W21G29    29.83R
ROCK SPRINGS   FLURRIES  34  32  92 CALM      29.80R
DIXON            N/A     40  34  78 N10G17    29.76R WCI  34
RAWLINS        CLOUDY    36  26  67 NE9       29.77R WCI  29
SARATOGA       CLOUDY    36  27  69 NW12G21   29.77R WCI  27
LARAMIE        FAIR      36  23  59 NW26      29.73R WCI  24
CHEYENNE       FAIR      40  31  70 N17G28    29.67R WCI  31
TORRINGTON     CLOUDY    39  29  67 NW17G23   29.71R WCI  30
PINE BLUFFS    MOCLDY    41  36  81 N20G30    29.66R

$$




USA.gov is the U.S. government's official web portal to all federal, state and local government web resources and services.